Voltar ao catálogo

ARIANE 2 DEB

AtivoGTO
NORAD 27046·DEBRIS·🇫🇷 France

Lançado Jan 27, 1989 de Guiana Space Centre

Loading…

TLE

ObsoletoSource: Space-Track

Época: Sep 9, 2026, 05:30 UTC

1 27046U 89006AB  26252.22977968  .00000213  00000-0  10182-1 0  9998
2 27046   8.3281 326.5211 7090811 311.8365   9.2636  2.24279073113643

Acompanhe ARIANE 2 DEB em tempo real com AllMySat

Download on the App Store